Погода в Валищево

Россия / Рязанская область     54°43′32″N   39°25′37″E
темп.,
°C
ветер,
м/с
пор.,
м/с
влажн.,
%
обл.,
%
осадки,
мм/ч
давл.,
гПа
погр.,
м
16 июня, ср
ср1600:00+17сз339150 1.4 100934
03:00+16зсз369369 1.9 1009114
06:00+17сз379446 0.3 1009207
09:00+21ссз567934 0.3 1010562
12:00+23ссз56694 0.9 10111381
15:00+24сз56671 1.2 10111643
18:00+21ссз59776 0.8 1013436
21:00+17с46887 0.8 1016115
17 июня, чт
чт1700:00+13с35852 0.0 101876
03:00+11с34790 0.0 102050
06:00+13с26835 0.0 1021160
09:00+18с35665 0.0 1022463
12:00+22с45515 0.0 10231597
15:00+23с45535 0.0 10231773
18:00+20св4768100 0.0 1024278
21:00+15св35730 0.0 102567
18 июня, пт
пт1800:00+13св22730 0.0 102617
03:00+12св11750 0.0 102710
06:00+15св22790 0.0 102879
09:00+19всв22660 0.0 1028411
12:00+22ю12565 0.0 10281216
15:00+23зюз22565 0.0 10271285
18:00+23зюз227018 0.0 1027709
21:00+17зюз228234 0.0 102720
19 июня, сб
сб1900:00+15зюз22831 0.0 102813
03:00+14юз228712 0.0 102811
06:00+16юз22865 0.0 102986
09:00+20юз22725 0.0 1029460
12:00+23ююз23645 0.0 10281025
15:00+24ююз33625 0.0 10271224
18:00+23ююз23735 0.0 1026738
21:00+18ююз228119 0.0 102612
20 июня, вс
вс2000:00+15юз338845 0.0 102630
03:00+14юз229029 0.0 102718
06:00+16юз12864 0.0 102772
09:00+21ююз23734 0.0 1026468
12:00+24ююз33634 0.0 10251006
15:00+25ююз33600 0.0 10241187
18:00+25ююз23710 0.0 10231111
21:00+19ю22840 0.0 102311